User: anonymous   Login
Location: Arthez
(43.0833°N, 0.2500°W)
Time: 02:46:32
(UTC+00:00)
Language:

Cosmos 1602 Rocket - Orbit

View from above orbital plane
View from above orbital plane
View from above satellite
View from above satellite

Ground track
Ground track

The orbit data is extracted from the following two-line orbital elements,

1 15332U 84105B   22020.62871772  .00000188  00000-0  19958-4 0  9991
2 15332  82.5330  58.9488 0019866 232.2470 247.0832 14.83509881994329
Epoch (UTC): 20 January 2022 15:05:21
Eccentricity: 0.0019866
inclination: 82.5330°
perigee height: 604 km
apogee height: 632 km
right ascension of ascending node: 58.9488°
argument of perigee: 232.2470°
revolutions per day: 14.83509881
mean anomaly at epoch: 247.0832°
orbit number at epoch: 99432

The dashed part of the orbit path shows where the satellite is in the earth's shadow,  

DLR